Starlink 30912

operational
NORAD ID: 58422 Int'l Des: 2023-180 Owner: SPXS Country: US Constellation: starlink
LEOCIRCULAR

Starlink 30912について

説明を読み込み中...

リアルタイム位置

3D地球を読み込み中...

次回通過

高度履歴

Altitude vs Time

uPlot chart will show altitude changes over time

軌道要素

1 58422U 23180W 25300.07846087 .00000555 00000-0 29692-4 0 9992
2 58422 43.0062 304.8664 0001651 264.1391 95.9273 15.27574495108865
Epoch: Oct 27, 2025 • Age: 36 hours

現在のステータス

高度 483.1 km
速度 7.63 km/s
衛星直下点 21.91°N, 72.76°E
打ち上げ日 Nov 22, 2023
運用期間 1.9 years
タイプ internet

技術仕様

分類 Payload
質量 730.00 kg
乾燥質量 700.00 kg
総質量 730.00 kg
長さ 0.30 m
直径 4.10 m
スパン 29.00 m
形状 Box + pan
製造者 SPXS
バスタイプ Starlink V2M
フェーズステータス In Orbit
所有者/国 SPXS/US

大規模コンステレーション

Loading constellations...